Hourly Data Report for December 31, 2003

TORONTO CITY
ONTARIO

43°40'00.000" N
79°24'00.000" W
112.50 m
6158355
71508
XTO

Download Data

Hourly Data (December 2003)
Hourly Data Report for December 31, 2003
TIME
LST
Temp Definition
°C
Dew Point Definition
°C
Rel Hum Definition
%
Precip. Amount Definition
mm

Wind Dir Definition
10's deg

Wind Spd Definition
km/h
Visibility Definition
km
Stn Press Definition
kPa
Hmdx Definition


Wind Chill Definition


Weather Definition


00:00 1.4 -2.7 74   LegendMM LegendMM LegendMM 100.98     LegendNANA
01:00 1.2 -3.2 72   LegendMM LegendMM LegendMM 100.99     LegendNANA
02:00 1.2 -3.3 72   LegendMM LegendMM LegendMM 100.98     LegendNANA
03:00 0.8 -3.3 74   LegendMM LegendMM LegendMM 101.02     LegendNANA
04:00 0.7 -3.3 75   LegendMM LegendMM LegendMM 100.95     LegendNANA
05:00 1.1 -2.2 79   LegendMM LegendMM LegendMM 100.88     LegendNANA
06:00 1.9 -0.7 83   LegendMM LegendMM LegendMM 100.81     LegendNANA
07:00 2.2 -0.1 85   LegendMM LegendMM LegendMM 100.69     LegendNANA
08:00 2.5 0.3 85   LegendMM LegendMM LegendMM 100.50     LegendNANA
09:00 3.7 0.5 80   LegendMM LegendMM LegendMM 100.42     LegendNANA
10:00 4.5 -0.4 70   LegendMM LegendMM LegendMM 100.29     LegendNANA
11:00 5.0 -0.3 69   LegendMM LegendMM LegendMM 100.14     LegendNANA
12:00 5.7 -1.9 58   LegendMM LegendMM LegendMM 99.92     LegendNANA
13:00 7.5 -1.4 53   LegendMM LegendMM LegendMM 99.77     LegendNANA
14:00 7.4 -1.1 55   LegendMM LegendMM LegendMM 99.73     LegendNANA
15:00 7.7 -2.6 48   LegendMM LegendMM LegendMM 99.77     LegendNANA
16:00 7.2 -2.2 51   LegendMM LegendMM LegendMM 99.91     LegendNANA
17:00 6.8 -4.4 45   LegendMM LegendMM LegendMM 100.07     LegendNANA
18:00 4.6 -5.5 48   LegendMM LegendMM LegendMM 100.28     LegendNANA
19:00 3.5 -6.4 48   LegendMM LegendMM LegendMM 100.45     LegendNANA
20:00 2.8 -5.3 55   LegendMM LegendMM LegendMM 100.57     LegendNANA
21:00 2.3 -5.1 58   LegendMM LegendMM LegendMM 100.70     LegendNANA
22:00 1.8 -5.4 59   LegendMM LegendMM LegendMM 100.77     LegendNANA
23:00 2.1 -4.9 60   LegendMM LegendMM LegendMM 100.79     LegendNANA

Notes on Data Quality.

Legend

  • E = Estimated
  • M = Missing
  • NA = Not Available*
  • [empty] = Indicates an unobserved value
Date modified: